Cloud_Cover
100 94 100 100 100 100 100 100 100 100 98 5 5 56 63 12 94 90 97 100 100 100 100 25 5 29 100 100 100 100 46 5 5 83 90 8 5 79 100 100 96 98 88 36
100 39 100 100 100 100 100 100 100 100 100 47 2 2 5 8 50 100 100 48 100 98 99 69 63 6 37 76 100 100 99 31 20 5 5 29 12 68 5 79 91 88 70 37
100 100 100 100 100 100 100 100 100 100 100 96 8 0 4 5 6 50 95 100 38 100 80 100 100 83 79 100 91 35 42 99 100 30 5 5 12 74 55 56 84 100 100 100
87 99 100 100 59 98 89 99 100 100 100 100 100 98 33 9 5 5 52 98 5 2 69 90 100 88 23 21 79 40 58 76 100 100 98 73 47 87 99 93 49 19 67 99
98 70 100 100 100 100 100 100 89 48 70 81 73 100 100 100 100 100 100 76 4 0 10 52 86 5 16 100 76 95 92 69 41 98 100 100 100 100 100 100 100 100 100 100
100 100 100 100 94 100 100 100 100 100 94 15 5 9 76 100 100 100 100 93 16 5 5 48 89 95 83 79 85 87 72 71 81 100 100 100 100 100 100 100 100 100 100 100
100 100 100 100 100 100 28 90 99 100 100 67 84 60 0 46 100 100 100 100 100 100 100 100 100 100 100 100 100 100 100 81 49 77 96 100 100 96 100 100 100 100 100 100
100 100 100 100 100 100 100 100 100 100 95 10 27 19 5 5 53 79 61 100 100 100 100 100 100 100 100 100 66 74 100 100 100 100 100 100 100 100 100 100 100 99 96 97
100 100 100 100 100 100 100 68 94 100 46 5 2 4 5 13 58 57 17 9 15 11 98 100 100 100 100 93 96 100 100 100 100 100 100 99 100 100 100 94 79 93 97 100
100 100 100 100 100 100 100 100 85 10 5 5 5 4 5 5 29 88 52 98 100 100 98 38 5 2 2 5 5 5 58 99 100 100 100 100 100 100 100 100 98 92 91 83
100 100 100 100 100 100 100 100 100 100 99 76 16 4 83 65 94 74 22 5 96 88 47 20 31 44 54 91 99 29 15 40 93 100 100 99 84 83 100 100 100 94 88 100
100 100 100 100 100 100 100 75 93 80 61 46 11 18 99 100 73 67 100 93 5 5 5 5 34 99 98 83 50 52 98 82 84 99 90 66 56 44 30 34 53 70 94 39
100 100 100 100 100 100 100 100 99 92 64 5 24 18 95 90 98 100 100 93 55 8 5 5 5 5 5 5 13 67 56 82 64 50 41 9 13 52 50 58 82 66 29 19
100 100 100 100 100 100 100 100 100 100 100 5 9 7 9 5 41 99 97 98 95 96 100 94 8 5 5 33 93 100 94 72 39 33 68 79 68 75 88 73 66 71 76 80
100 100 100 100 100 100 100 100 100 90 100 79 85 23 100 100 100 96 61 36 5 5 5 5 5 5 26 83 100 100 100 99 96 99 100 100 98 61 50 37 61 70 99 100
100 99 100 100 100 100 100 99 83 41 39 5 8 5 100 100 30 72 12 3 5 5 6 33 94 97 78 74 40 50 97 99 100 100 100 100 100 100 100 100 100 100 100 100
100 100 100 100 100 100 63 5 52 93 29 9 5 6 100 100 99 85 61 43 65 20 8 21 66 96 100 99 100 100 100 100 100 100 100 100 100 100 100 100 100 100 100 100
98 100 100 100 100 97 5 5 11 79 100 100 82 68 100 100 100 65 63 100 100 100 93 59 53 45 40 87 100 100 100 100 100 100 100 100 100 100 100 100 100 100 100 100
76 100 100 100 93 94 0 0 5 9 22 76 98 100 100 100 77 6 97 100 91 100 98 71 93 94 100 100 100 100 100 100 100 100 100 100 100 100 100 100 100 100 100 97
100 100 100 96 100 88 0 0 0 5 36 2 98 5 0 0 0 0 0 1 64 96 90 30 5 5 5 5 8 96 100 100 100 100 100 100 100 100 100 100 100 100 100 56
100 100 99 91 99 14 0 0 5 56 25 0 6 58 15 2 3 0 0 0 0 0 2 13 10 5 5 5 53 85 93 97 100 100 100 100 100 99 92 93 25 60 90 95
97 100 100 100 99 65 0 42 99 61 16 20 45 72 90 86 5 5 4 1 3 3 3 5 27 89 92 53 10 5 5 64 58 91 48 86 65 21 38 84 89 88 84 96
4 2 4 7 5 4 0 4 10 5 5 54 72 63 100 96 71 69 88 86 94 23 8 99 100 100 100 94 97 100 87 76 76 100 100 87 94 100 36 74 89 73 13 9
0 0 4 0 2 0 0 0 0 0 0 0 4 5 3 45 69 100 100 100 100 100 100 100 100 100 100 100 100 100 99 100 100 100 76 22 53 100 77 19 15 5 5 5
5 2 5 4 0 0 0 0 0 0 0 0 0 2 5 33 6 80 100 100 100 100 100 100 100 100 100 100 100 100 100 100 100 100 94 100 100 100 75 43 5 10 18 30
5 5 9 5 2 0 0 0 0 0 0 0 3 2 1 4 50 50 62 100 100 100 100 100 100 100 100 100 100 100 100 100 100 100 100 100 100 95 100 100 100 98 99 100